Regional Weather Roundup
Issued by NWS Huntsville, AL

Home | Current Version | Previous Version | Text Only | Print | Product List | Glossary On
Versions: 1 2 3 4 5 6 7 8 9 10 11 12 13 14 15 16 17 18 19 20 21 22 23 24 25 26 27 28
000
ASUS44 KHUN 242310
RWRHUN

WEATHER ROUNDUP FOR THE TENNESSEE VALLEY
NATIONAL WEATHER SERVICE HUNTSVILLE AL
600 PM CDT SAT SEP 24 2016

ALZ001>004-250000-
NORTHWEST ALABAMA

CITY           SKY/WX    TMP DP  RH WIND       PRES   REMARKS
SHOALS AIRPORT CLEAR     92  59  33 VRB7      30.03S HX  91
$$

ALZ005>007-016-250000-
NORTH CENTRAL ALABAMA

CITY           SKY/WX    TMP DP  RH WIND       PRES   REMARKS
DECATUR AP     CLEAR     91  59  33 N9        30.03S HX  90
HUNTSVILLE AP  CLEAR     92  56  29 NE12      30.03S HX  90
MERIDIANVILLE  CLEAR     88  45  22 NE5       30.04S
REDSTONE ARSN  CLEAR     89  57  33 NE8       30.02S
VINEMONT AP    FAIR      88  55  32 N6        30.06S
$$

ALZ008>010-250000-
NORTHEAST ALABAMA

CITY           SKY/WX    TMP DP  RH WIND       PRES   REMARKS
ALBERTVILLE    CLEAR     90  64  43 N7        30.03R HX  91
FORT PAYNE     PTCLDY    90  52  27 CALM      30.02S
SCOTTSBORO AP  CLEAR     90  55  31 NE3       30.02S
SCOTTSBORO HCN   N/A     88 N/A N/A MISG        N/A
VALLEY HEAD      N/A     88 N/A N/A MISG        N/A
$$

TNZ076-096-097-250000-
SOUTHEASTERN MIDDLE TENNESSEE

CITY           SKY/WX    TMP DP  RH WIND       PRES   REMARKS
TULLAHOMA        N/A     84  59  42 N5        30.08S
WINCHESTER     PTCLDY    86  64  48 N5        30.06S
$$

...SURROUNDING SITES...

CITY           SKY/WX    TMP DP  RH WIND       PRES   REMARKS
ATLANTA        PTCLDY    89  62  40 NE6       30.04R
ANNISTON       CLEAR     94  52  24 N5        30.00S HX  91
BIRMINGHAM     PTCLDY    93  57  29 N8        30.02R HX  91
CHATTANOOGA    PTCLDY    91  58  32 N6        30.03S HX  90
CORINTH        FAIR      90  61  37 E6        30.00S
DALTON         CLEAR     88  63  42 CALM      30.03R
GADSDEN        CLEAR     91  64  40 SE3       30.01R HX  92
GOLDEN TRNGL   PTCLDY    93  61  33 NE9       29.99R HX  93
HALEYVILLE     FAIR      90  62  39 NE5       30.05S HX  90
JACKSON TN     PTCLDY   N/A N/A N/A E6        30.02S
MEMPHIS        PTCLDY    93  63  36 E7        29.99F HX  94
NASHVILLE      PTCLDY    88  60  38 N8        30.06S
OXFORD MS      FAIR      91  57  31 N6        30.01S HX  90
ROME           CLEAR     93  57  29 N5        30.00S HX  91
SAVANNAH       CLEAR     90  63  40 E5        30.01S HX  90
TUPELO         CLEAR     93  57  29 NE7       29.99S HX  91
TUSCALOOSA     CLEAR     94  60  32 N8        29.98R HX  94
$$

...GULF COAST WEATHER...

CITY           SKY/WX    TMP DP  RH WIND       PRES   REMARKS
GULFPORT       PTCLDY    89  72  56 SW3       29.98S HX  96
PASCAGOULA     MOCLDY    82  76  81 CALM      29.99S
MOBILE         PTCLDY    85  71  63 SW8       30.00S HX  90
GULF SHORES    CLEAR     85  77  76 SW3       29.98S HX  96
PENSACOLA      LGT RAIN  85  70  60 E8        29.98R
DESTIN         CLOUDY    86  70  58 VRB3      29.97S HX  90
PANAMA CITY    PTCLDY    85  75  71 SW3       29.98R HX  93
APPALACHICOLA  PTCLDY    86  77  74 SW6       29.99R HX  97
$$





USA.gov is the U.S. government's official web portal to all federal, state and local government web resources and services.